Wind_Speed
36 36 36 37 37 36 35 35 36 37 37 39 40 41 41 40 40 39 39 38 38 37 37 37 37 37 36 36 35 34 35 36 37 38 39 39 40 40 39 35 30 27 27 29 29 30 31 30 29 28 28 27 26 26 27 27 26 25 24 24 24 24 22 21 22 22 22 23 22 22 22 21 20 22 24 24 23 22 21 19 18 18 19 19 19
38 39 39 39 39 37 36 37 37 38 38 40 41 41 41 40 40 40 40 40 39 39 39 39 39 38 38 37 36 35 36 36 38 39 39 39 39 39 38 35 31 27 26 28 28 28 29 29 28 28 27 27 26 26 27 27 26 26 26 25 24 24 23 23 23 22 23 23 23 23 23 21 20 21 23 24 23 22 21 19 18 18 19 19 19
41 41 42 41 39 38 38 38 38 38 39 40 41 41 41 40 40 40 40 41 40 40 40 40 40 40 39 38 37 36 36 36 38 39 39 39 39 38 36 33 30 28 27 28 28 28 28 29 28 29 28 28 28 27 26 26 26 27 26 24 24 25 24 24 23 23 23 24 24 24 22 20 20 21 23 24 22 20 21 20 18 18 19 19 19
43 44 43 41 40 39 39 38 39 39 40 41 41 41 41 41 40 41 41 41 41 41 42 42 42 41 40 39 38 37 37 36 37 38 38 38 38 38 37 32 29 29 29 29 28 29 30 30 30 29 29 29 29 27 26 26 27 27 26 24 24 24 24 24 24 25 25 25 25 23 22 21 20 21 23 23 21 20 22 22 20 19 19 19 19
45 44 43 41 40 40 39 39 39 40 40 41 41 41 41 41 41 41 41 42 42 42 42 43 43 42 41 41 40 39 38 36 36 37 37 38 38 38 37 33 29 28 28 29 29 28 29 30 30 30 29 28 28 27 27 28 29 28 25 24 24 25 26 26 26 26 27 26 25 23 23 22 21 21 23 24 23 21 22 23 21 19 19 20 20
45 44 42 42 41 40 40 40 40 40 41 41 41 41 41 41 41 41 41 42 42 42 43 43 44 44 43 43 42 41 40 38 36 37 38 38 38 38 37 34 31 28 28 29 28 29 29 29 29 30 30 28 28 28 29 29 29 26 23 24 26 26 26 26 26 26 26 25 25 24 24 24 23 22 23 25 24 23 22 23 22 19 19 20 19
44 43 43 42 42 41 41 41 41 41 41 41 41 42 42 42 42 42 42 43 43 43 44 45 46 46 45 45 44 43 42 39 37 37 38 38 38 37 37 35 31 29 28 27 28 29 30 28 28 29 30 30 30 31 30 30 28 25 23 25 27 26 25 26 26 26 25 24 24 24 24 25 24 23 24 25 25 24 23 24 23 21 19 19 19
44 43 43 42 42 42 41 41 40 41 41 41 41 42 42 42 43 43 44 44 45 45 46 47 48 48 48 47 45 44 42 40 38 37 38 39 38 37 36 34 31 29 28 27 27 29 30 29 29 30 30 31 32 32 31 30 28 25 25 27 27 26 26 26 25 25 25 23 24 24 24 25 25 25 25 25 24 23 23 25 24 22 20 20 21
43 43 43 42 41 41 40 40 40 40 40 40 41 41 42 43 43 44 45 46 46 47 47 47 47 48 48 47 46 44 43 41 39 37 37 38 38 37 36 33 30 27 27 27 28 29 30 30 30 31 31 32 32 32 31 29 28 27 26 26 26 26 26 26 25 25 25 24 24 25 24 24 25 25 23 22 23 23 24 24 24 22 22 22 22
43 42 41 40 40 39 40 40 40 40 40 40 41 41 42 43 43 44 45 46 46 46 46 46 46 46 47 47 46 45 44 42 40 37 36 37 37 36 35 33 30 26 25 25 26 28 29 29 30 31 33 33 31 31 31 29 28 28 26 25 26 27 26 26 25 25 25 25 25 25 24 24 25 25 22 22 24 26 25 24 24 24 24 22 23
41 40 39 39 39 40 40 41 41 41 41 42 42 42 43 43 43 44 45 45 46 46 46 46 47 47 48 47 47 46 45 43 41 38 36 36 36 36 34 32 30 27 25 25 25 26 27 29 30 31 32 32 31 30 31 31 30 29 28 26 27 27 26 26 26 26 26 26 25 25 24 25 26 26 24 24 25 26 25 25 26 25 24 23 24
38 39 39 40 40 40 41 41 42 42 42 42 43 43 43 44 44 45 45 46 46 47 47 47 48 48 49 49 48 48 46 44 43 40 37 35 36 36 34 32 30 28 27 26 25 26 27 28 28 29 31 31 30 30 31 32 31 30 28 27 27 27 26 26 27 28 28 27 26 25 26 26 27 27 25 25 25 25 26 27 27 25 24 24 25
39 40 40 40 41 41 42 42 43 43 43 43 43 44 44 44 45 46 47 47 48 48 49 49 49 50 50 51 50 49 48 46 44 41 38 36 36 37 35 33 30 29 27 26 26 27 28 28 27 29 31 32 32 31 32 33 33 31 29 28 28 28 28 29 30 29 29 29 28 27 28 29 28 27 27 26 27 27 28 28 27 26 26 26 27
39 40 40 40 42 43 44 44 44 44 45 45 45 45 46 46 47 48 49 49 49 50 51 51 51 52 52 53 52 51 50 48 45 43 39 36 35 36 37 34 31 30 28 27 26 27 28 29 29 29 30 32 33 33 33 33 32 31 31 30 29 29 30 31 30 30 30 31 30 29 29 29 28 28 27 28 28 28 28 27 27 28 29 29 30
39 40 42 43 44 44 44 44 44 44 45 45 46 47 47 48 48 49 50 51 51 52 52 53 53 53 54 54 54 53 51 49 47 44 42 38 35 35 37 36 33 31 29 28 27 28 28 29 31 30 30 31 33 33 34 34 32 31 32 32 33 32 31 30 29 30 31 32 30 30 29 28 28 28 27 28 29 28 28 29 30 31 32 32 31
40 42 43 44 44 44 44 44 44 44 45 46 46 47 48 49 49 50 51 52 52 53 53 54 54 54 54 54 54 54 53 51 49 46 43 41 37 35 36 37 35 32 31 29 28 29 30 30 31 32 31 32 33 34 34 33 32 31 31 32 34 34 31 29 29 29 30 29 28 28 28 28 28 28 28 28 30 30 30 31 32 33 33 32 31
42 43 43 43 43 44 44 45 45 46 47 47 48 49 50 51 51 52 52 53 54 54 54 55 55 55 55 55 55 55 54 53 51 49 45 43 39 37 37 38 37 34 32 31 29 30 31 32 32 33 33 34 35 36 35 33 32 31 30 31 32 32 31 30 30 30 29 28 27 27 27 27 27 27 28 29 31 32 30 30 31 31 31 32 32
41 41 41 42 42 43 44 45 46 47 48 49 50 51 52 53 54 54 55 56 56 57 57 58 58 57 57 57 57 56 56 55 54 52 49 46 43 39 37 38 39 37 34 33 31 30 31 32 33 34 34 36 37 37 36 34 33 32 31 31 32 32 32 32 31 31 30 29 29 29 29 28 28 29 30 30 31 31 31 30 31 31 32 32 31
38 39 40 41 42 42 43 44 45 46 47 48 49 50 51 52 54 55 56 57 57 58 58 59 60 60 60 60 60 59 59 58 56 54 52 49 46 43 40 40 40 40 37 35 33 32 31 31 32 34 35 36 38 39 38 36 36 35 33 32 31 31 31 31 31 31 30 29 30 29 29 29 30 31 32 32 31 30 31 31 32 32 33 32 30
37 38 38 39 40 40 41 42 43 44 45 46 47 49 50 52 53 54 55 57 57 58 59 59 59 60 61 61 61 61 61 60 59 57 54 50 47 45 43 42 42 42 40 37 36 35 33 32 32 33 33 35 37 40 40 39 38 38 35 33 31 29 28 29 30 31 30 30 31 30 30 32 33 32 32 31 30 29 30 33 33 32 33 33 32
35 35 36 37 37 38 39 40 40 41 43 44 45 46 48 49 51 52 54 55 57 58 59 60 60 60 60 61 61 60 60 60 59 58 55 52 48 45 44 44 44 44 43 41 38 37 36 34 33 33 32 33 34 38 40 40 40 39 38 36 34 31 29 29 30 31 31 32 33 32 32 34 35 33 31 31 30 30 32 35 35 32 33 35 35
32 33 33 34 34 35 35 36 37 38 39 40 41 42 44 45 47 48 50 51 53 54 56 57 59 59 60 61 61 61 60 60 59 58 56 53 49 45 43 43 44 45 45 44 41 39 38 37 35 34 33 32 32 34 37 39 39 39 39 39 37 35 33 33 33 33 33 34 35 35 35 37 37 35 34 33 34 35 35 35 33 33 35 36 36
29 29 30 30 30 31 32 33 34 34 35 36 37 38 39 40 42 43 44 46 47 49 50 51 53 55 56 58 59 60 60 60 59 58 56 53 50 46 43 42 43 45 46 46 45 42 41 40 38 36 35 34 33 32 33 35 37 39 39 38 38 38 38 37 35 35 36 36 37 37 38 38 38 37 37 37 39 39 38 37 35 35 37 38 37
25 25 26 27 27 28 29 30 30 31 33 34 35 36 37 38 39 40 41 42 43 43 44 45 46 48 49 51 52 54 56 57 58 58 57 54 51 47 43 41 42 44 45 47 47 45 43 42 41 39 38 37 36 34 33 32 34 37 39 38 37 36 38 38 38 39 40 39 38 38 39 39 39 39 40 42 43 42 41 40 39 39 40 41 41
23 23 24 24 24 25 25 27 28 29 31 33 35 36 38 40 41 43 43 44 43 42 41 41 40 41 42 44 45 46 48 50 52 54 55 54 51 47 44 42 41 42 44 46 47 46 45 44 43 41 40 40 39 38 35 33 32 33 37 38 37 36 35 35 36 39 42 42 40 39 39 40 40 41 43 44 45 44 44 44 43 43 42 42 42
21 22 22 22 23 24 24 26 27 29 30 32 34 36 38 40 42 44 46 46 45 44 42 41 40 39 39 40 40 41 41 42 44 46 48 50 49 46 44 42 41 42 43 44 46 46 46 45 45 44 42 42 41 40 39 36 34 34 34 36 37 36 34 33 33 34 37 40 41 41 42 43 43 44 45 47 48 47 47 46 46 45 44 42 42
21 21 21 21 22 23 24 25 27 28 30 31 33 35 37 38 40 43 45 47 46 44 42 40 40 39 38 38 38 38 38 38 38 39 41 43 44 43 42 41 41 41 42 43 44 45 46 46 46 46 45 44 43 43 41 39 38 38 37 37 37 36 35 35 34 33 32 34 36 37 38 40 42 43 44 45 46 46 45 44 44 45 45 45 45
20 20 21 21 22 23 24 25 26 28 29 31 33 34 36 38 39 41 44 47 48 45 41 40 39 38 37 36 36 36 37 36 36 36 36 37 38 38 38 39 40 41 42 42 43 44 45 46 46 46 46 46 45 45 44 42 41 41 41 41 39 38 38 37 37 36 34 33 32 32 32 33 35 37 38 39 39 38 37 37 38 39 40 41 43
19 20 20 21 22 22 24 25 26 28 30 31 33 35 36 38 40 41 44 47 49 47 44 41 41 39 36 35 34 33 34 34 34 34 34 33 33 34 35 36 38 40 41 43 43 43 44 45 45 46 46 46 47 46 45 45 44 44 44 44 41 40 40 40 39 39 38 36 34 35 34 32 30 31 33 34 34 33 32 31 31 32 33 34 36
18 19 20 21 21 22 23 25 26 28 30 32 34 35 37 39 40 42 44 47 50 49 46 44 43 41 37 34 33 32 31 31 31 31 32 31 31 31 32 34 37 39 41 43 44 44 44 44 44 45 45 46 46 47 47 46 46 45 46 46 44 42 41 40 41 42 41 38 36 37 37 34 32 31 31 32 33 32 32 32 32 32 32 34 36
18 19 19 20 21 22 24 25 27 28 30 32 34 36 37 39 41 42 44 46 49 50 48 46 44 41 37 33 32 31 30 29 28 28 28 29 29 28 29 32 35 38 40 42 44 45 45 45 44 44 44 45 45 45 46 47 47 47 46 46 46 45 43 43 43 44 43 40 38 39 38 36 34 33 34 34 34 33 33 34 35 36 36 36 38
18 19 20 20 21 22 24 25 27 29 31 32 34 35 37 39 41 43 44 45 49 51 49 47 45 42 37 33 31 29 28 27 26 26 25 25 26 26 26 29 33 36 39 41 44 45 45 46 45 44 44 44 45 45 45 45 46 47 47 47 46 46 45 45 45 45 45 43 42 42 42 39 37 36 37 38 37 37 39 40 41 41 40 39 39
19 19 20 21 22 23 24 25 27 29 30 32 33 34 36 38 40 42 44 46 48 51 51 48 46 43 38 34 32 30 27 26 25 24 23 22 22 23 23 25 29 33 37 39 42 44 45 46 45 45 44 43 43 44 44 44 45 45 46 47 47 46 46 46 46 45 45 45 44 43 44 43 40 39 40 41 42 43 44 45 44 44 43 42 43
19 20 21 21 22 23 24 26 27 28 29 31 33 34 36 37 39 41 44 45 47 50 51 50 48 45 41 36 34 32 30 27 24 23 22 21 20 20 20 21 24 29 33 36 39 41 43 44 44 44 43 42 42 42 42 43 43 44 45 46 46 45 45 45 46 46 46 46 45 46 46 45 44 42 43 45 45 46 46 47 47 47 47 47 46
18 19 21 22 23 24 25 25 26 28 29 31 33 34 35 37 39 40 43 44 46 49 51 51 49 47 43 39 36 35 33 29 25 22 22 21 20 19 17 17 19 23 28 32 35 37 39 41 42 43 42 41 40 41 41 41 41 42 43 44 45 45 44 44 44 45 45 45 46 47 46 46 46 45 45 45 46 47 49 50 50 50 50 49 48
19 20 21 22 23 24 25 26 27 29 30 31 32 34 35 36 38 39 42 44 45 47 50 51 50 49 46 42 38 37 35 32 27 23 21 20 20 19 17 16 16 18 22 26 30 33 35 37 39 40 40 39 39 39 39 39 39 39 39 41 42 44 45 46 47 46 46 46 46 46 46 46 47 47 46 46 47 50 52 53 52 50 49 48 48
20 21 22 23 24 25 26 28 29 29 30 31 32 33 34 35 37 39 41 43 44 45 47 49 50 50 48 44 40 38 37 34 30 26 23 22 21 20 18 16 15 15 17 20 24 27 30 33 34 36 37 37 37 37 37 38 39 40 39 39 39 41 44 46 48 50 50 50 50 50 49 49 49 48 48 48 50 52 52 51 49 48 47 46 46
21 22 23 23 24 24 25 26 27 28 29 30 31 33 34 35 36 38 40 42 44 44 45 47 49 49 48 46 42 39 37 35 31 27 24 23 22 21 20 18 16 15 15 16 18 21 25 28 30 32 33 34 36 36 36 36 38 40 42 42 40 39 40 42 45 48 50 52 52 51 51 50 49 48 49 50 52 53 53 50 48 47 47 47 47
21 22 23 23 23 24 25 26 27 28 30 31 32 33 34 35 36 37 39 41 43 43 44 46 48 48 48 47 44 40 37 36 32 27 23 22 22 21 20 19 17 16 15 15 15 17 19 22 25 27 29 31 33 35 36 35 35 36 39 42 42 41 39 39 40 42 45 47 48 49 50 50 50 50 51 51 52 52 51 50 48 48 48 48 49
21 22 22 23 23 24 25 27 28 29 31 32 33 33 34 35 36 37 38 40 42 43 43 44 46 47 47 47 46 42 38 36 34 30 25 22 22 21 20 19 18 17 15 14 14 14 15 17 20 23 25 27 29 32 34 34 33 32 33 35 38 39 40 39 39 39 40 41 41 42 44 45 47 48 49 50 49 49 48 48 48 48 48 49 49
21 22 23 23 24 25 27 28 29 30 31 33 34 34 35 35 36 37 37 38 40 42 43 43 44 45 46 46 46 44 40 36 35 33 28 24 22 22 21 19 18 17 16 15 14 14 14 15 16 19 21 23 25 27 30 32 32 30 29 29 31 32 34 35 36 36 37 38 38 38 38 39 40 41 42 44 44 45 45 45 45 45 46 47 47
22 22 23 24 25 26 27 29 30 31 31 32 34 35 35 35 35 36 36 37 39 41 42 43 43 44 45 45 45 45 43 39 35 33 31 26 22 21 22 21 19 17 16 16 15 14 14 14 14 16 17 19 21 22 24 27 28 28 26 25 26 27 28 30 31 32 32 33 34 35 35 36 37 37 38 39 39 40 40 40 40 41 42 43 43
22 22 23 24 25 26 28 29 30 31 32 32 32 33 34 35 35 35 36 37 38 39 41 42 42 42 43 44 44 44 44 42 38 34 32 29 25 21 21 21 20 18 16 16 15 14 14 13 13 14 15 16 18 19 20 21 24 25 25 24 23 23 24 25 26 27 28 28 29 30 31 32 33 34 35 35 36 36 36 36 37 38 38 39 39
22 22 23 24 26 27 28 29 30 31 32 32 33 33 34 34 35 36 36 36 37 38 40 41 42 41 42 43 44 44 43 43 41 37 33 31 28 24 21 20 20 19 17 16 15 15 14 13 13 13 13 14 15 16 18 19 20 21 22 22 22 21 21 21 22 22 23 24 24 25 26 27 28 29 30 31 31 32 32 33 34 35 35 35 35
22 23 24 25 26 28 29 30 30 31 32 33 34 34 34 34 35 35 36 36 36 37 38 40 41 41 41 42 43 43 43 43 42 39 36 32 29 27 24 21 20 19 18 17 16 15 14 14 13 13 12 13 13 14 16 17 18 19 20 20 20 20 20 20 20 20 21 21 21 22 22 23 24 25 26 27 27 28 29 29 30 30 31 31 31
22 23 24 25 27 28 29 30 31 31 32 33 34 35 35 35 35 35 35 35 36 36 37 38 40 41 41 41 41 42 42 42 41 40 38 34 30 28 26 23 21 19 18 17 16 15 15 14 14 13 13 12 12 13 14 15 17 18 19 19 19 19 19 19 19 19 19 20 20 21 21 21 22 23 23 23 24 24 25 26 26 26 26 26 27
23 24 24 25 27 28 29 30 31 31 32 33 33 34 35 35 35 35 35 35 35 36 36 38 39 40 40 40 40 41 41 42 41 40 39 37 33 29 26 24 22 20 18 17 16 16 15 15 14 14 13 13 12 12 13 14 15 16 17 17 18 19 19 19 19 19 18 19 19 20 20 20 20 21 22 21 22 22 23 23 23 23 22 22 21
24 24 25 25 26 28 29 30 31 31 32 33 34 34 35 35 35 35 34 34 34 35 36 36 38 39 40 40 40 40 41 42 42 41 40 38 36 33 29 26 24 22 20 18 17 16 15 15 14 14 14 14 13 12 13 13 14 14 15 16 17 18 18 18 19 19 18 18 18 19 19 19 19 19 20 20 19 19 19 20 20 20 19 19 18
23 24 25 26 26 27 28 29 30 31 32 33 33 34 35 35 35 35 34 34 34 34 35 35 36 38 39 40 40 40 40 40 41 41 40 39 38 35 32 28 26 24 22 20 18 17 16 15 14 14 14 14 13 13 13 13 13 14 14 15 15 16 17 17 18 18 18 18 18 18 18 18 18 18 19 19 19 18 18 19 19 18 18 18 18
23 24 25 26 27 27 28 29 30 30 31 32 33 34 35 36 36 35 35 34 33 34 34 35 35 37 38 39 39 39 39 39 39 40 40 39 38 37 34 31 28 25 23 21 19 17 17 16 15 15 14 14 13 13 13 13 13 13 14 14 15 15 16 16 17 17 17 18 18 18 18 18 18 18 18 18 18 18 18 19 18 18 18 17 17
23 24 25 26 27 28 29 29 30 30 31 32 32 33 33 34 35 35 35 35 34 33 34 34 35 35 36 37 38 38 38 38 38 39 39 39 39 37 36 34 31 27 25 23 21 18 17 16 16 15 14 14 14 14 14 14 13 13 13 14 14 15 16 16 16 17 17 17 18 18 18 18 18 18 18 18 18 18 18 18 18 17 17 17 17
Wind_Direction
287 288 290 292 293 291 290 289 289 288 287 285 285 284 284 284 285 286 288 290 291 292 293 294 295 297 299 300 301 302 303 305 306 307 309 311 313 314 310 299 286 278 272 265 259 256 256 255 249 242 239 239 239 242 244 243 242 242 242 242 239 239 239 238 236 235 234 233 233 236 237 236 235 237 238 235 232 236 243 247 247 246 249 251 250
288 289 290 292 292 290 289 288 287 286 285 284 284 283 283 284 285 286 288 289 291 292 293 294 296 297 298 299 301 301 302 304 306 307 308 310 311 312 311 302 289 278 269 264 260 257 256 255 247 239 235 237 237 238 240 240 241 244 243 239 237 238 237 236 237 236 235 236 237 237 237 238 237 239 241 238 233 236 244 248 245 246 250 250 248
287 289 290 291 290 289 288 287 286 285 284 283 283 283 283 284 285 286 288 290 291 292 293 294 295 297 298 299 299 300 302 304 305 307 308 309 309 311 311 304 291 280 272 266 261 257 258 256 247 238 235 235 235 236 238 239 241 242 238 235 236 238 236 236 238 238 236 238 240 239 240 240 237 239 243 242 239 240 245 247 244 246 249 247 246
287 288 289 289 289 288 287 286 285 284 284 283 282 282 282 283 285 286 288 290 291 292 293 294 295 295 296 298 299 300 302 303 304 305 308 309 309 312 313 305 291 281 275 268 260 256 257 254 247 241 237 234 233 235 236 237 239 239 237 236 236 237 238 238 238 237 237 240 242 241 241 240 236 239 244 247 246 240 241 247 246 244 246 246 246
286 287 288 288 288 287 287 286 285 285 284 283 282 282 282 283 285 287 288 290 291 292 292 293 294 295 296 298 299 300 302 303 303 304 307 310 310 312 313 307 292 281 275 269 261 256 256 252 244 240 238 235 233 234 233 233 235 237 237 237 236 238 241 241 240 239 239 241 241 240 241 239 237 240 246 250 247 239 241 246 244 241 245 247 247
285 286 286 287 287 288 288 288 287 286 285 283 283 282 283 284 285 286 288 289 290 291 291 292 293 294 295 297 299 300 302 303 303 304 307 309 311 312 312 308 294 282 276 271 264 258 256 252 245 240 238 237 235 235 233 232 232 233 233 236 238 240 241 241 241 241 240 240 241 240 240 239 238 240 244 248 246 240 240 242 239 240 245 247 248
284 285 286 287 288 289 289 289 288 287 286 285 284 284 284 284 285 286 286 287 288 289 290 291 292 293 294 296 298 299 301 303 303 304 305 307 309 310 311 308 296 283 276 272 267 262 257 253 248 243 238 236 236 234 233 232 231 231 232 237 240 239 239 240 241 241 241 241 241 240 239 240 240 239 240 244 243 238 237 239 238 237 242 248 254
283 284 285 287 289 290 289 289 288 287 286 285 284 284 284 284 285 285 286 286 287 288 289 290 291 292 293 295 297 298 300 301 303 304 304 306 307 308 309 308 298 285 278 274 269 266 261 254 250 245 237 235 236 236 235 234 232 231 232 236 238 238 239 241 241 242 243 241 240 240 239 241 242 241 240 241 240 238 237 234 231 235 244 252 256
282 284 286 288 289 290 290 290 289 288 287 286 286 285 285 285 285 285 286 287 287 288 289 289 290 291 292 293 295 296 298 299 301 302 303 303 305 305 307 308 301 287 279 276 272 268 261 252 247 245 239 237 238 239 239 235 231 230 229 231 237 239 239 240 241 244 245 243 242 242 241 241 242 242 240 237 234 234 233 229 230 242 251 251 252
282 285 287 289 290 290 291 291 290 290 289 288 288 287 287 286 286 286 287 287 288 289 289 289 290 290 291 293 294 295 296 297 298 299 299 299 301 303 305 307 302 290 279 274 272 270 262 251 246 245 242 239 239 241 242 238 231 229 229 230 237 241 238 237 239 242 244 243 243 244 243 240 240 241 235 226 226 230 231 232 239 246 247 245 249
284 286 288 289 291 291 291 292 291 291 290 289 289 288 288 287 287 287 287 288 288 289 289 289 290 290 291 292 293 294 295 295 296 297 296 296 297 299 301 304 302 292 281 273 270 268 262 254 248 244 238 236 237 241 244 241 233 231 230 231 236 239 238 237 239 240 241 243 243 244 243 240 239 239 232 223 226 232 235 239 243 243 240 241 245
285 287 288 289 290 291 291 292 292 291 290 289 288 288 287 287 287 287 287 288 288 288 289 289 289 290 290 291 292 293 293 294 294 294 294 293 292 294 297 300 300 294 284 275 268 263 258 253 247 240 233 231 233 237 241 242 238 235 233 231 231 234 235 237 240 242 243 243 242 240 239 238 238 238 234 228 228 234 239 243 245 243 240 239 242
285 286 286 287 288 289 290 291 291 290 290 289 289 288 288 287 287 286 286 287 287 287 288 288 289 289 290 290 291 292 292 292 293 293 292 290 289 290 292 294 296 294 286 277 270 262 255 250 246 240 234 231 231 233 237 242 242 239 237 234 232 232 234 236 238 240 242 243 242 238 236 236 237 236 234 231 230 232 238 243 246 245 242 240 241
284 285 286 287 288 289 290 290 290 289 289 288 288 288 288 287 287 286 286 286 286 286 287 287 287 288 288 289 289 290 290 291 291 290 290 288 286 285 287 289 291 292 289 280 272 264 255 248 243 240 236 233 231 232 234 238 241 242 242 242 239 235 233 235 235 235 236 238 239 238 238 238 238 236 235 236 237 235 235 238 243 246 245 242 240
285 286 287 289 290 291 291 290 290 289 288 288 287 287 287 286 286 285 285 285 285 284 284 285 285 285 285 286 286 287 288 288 288 288 287 285 283 281 282 284 285 286 287 282 273 264 255 247 242 239 236 235 234 235 236 236 237 241 243 244 243 241 238 237 236 235 235 236 235 236 238 239 238 237 238 241 243 241 237 236 238 241 242 242 242
286 287 289 291 292 292 292 292 291 291 290 289 289 288 287 286 286 285 284 284 284 283 283 282 282 282 282 282 283 284 284 285 285 285 284 283 281 278 277 279 280 280 281 280 274 266 258 251 246 243 241 238 236 237 239 238 237 239 242 242 243 244 244 242 241 240 238 237 235 235 237 238 237 239 240 242 245 244 239 237 238 240 242 245 247
288 289 290 291 292 292 293 293 293 292 292 291 290 290 289 288 287 286 285 284 283 283 282 281 280 280 280 280 280 280 281 282 282 282 281 280 278 275 273 274 276 276 275 275 274 269 262 255 251 249 246 242 237 236 238 240 240 240 241 241 241 243 243 243 244 244 240 237 239 242 243 242 238 238 239 239 242 245 243 241 242 245 247 249 250
289 290 291 292 292 293 293 294 294 294 293 293 292 291 291 290 288 287 286 285 284 283 282 281 280 279 278 277 277 277 278 279 280 280 280 278 276 273 270 269 271 272 271 270 269 268 265 260 254 251 249 245 240 237 237 239 242 242 242 241 241 241 241 242 245 247 244 241 242 244 247 245 241 240 240 238 240 244 243 242 245 249 252 254 253
291 292 293 294 294 295 295 295 295 295 294 294 294 293 292 291 290 289 287 286 285 284 283 281 280 279 277 276 276 275 275 276 277 278 278 277 275 272 268 266 266 268 268 266 265 264 264 261 257 253 250 247 243 241 239 239 241 242 243 243 243 242 243 243 243 247 249 248 246 246 247 245 242 241 241 241 242 244 243 243 245 250 255 257 256
294 294 295 296 296 296 296 296 297 296 296 296 295 295 294 293 292 290 289 287 286 285 283 282 280 279 278 276 275 274 274 274 275 275 276 276 274 271 268 265 263 263 264 263 262 261 260 259 257 254 251 248 246 245 243 241 241 242 243 243 243 242 243 243 242 244 246 247 245 243 241 241 242 241 241 243 245 245 245 245 246 249 253 256 255
295 296 297 297 298 298 299 299 299 299 299 299 299 298 297 296 294 293 291 289 288 286 284 282 281 279 278 276 275 274 273 273 274 274 274 275 273 271 267 264 261 260 260 260 259 259 257 256 255 255 253 250 247 246 245 243 242 242 242 244 244 243 243 242 241 240 240 241 242 241 239 241 243 244 245 245 243 240 241 245 248 251 254 255 254
297 298 298 299 300 301 301 302 303 304 304 305 305 305 304 303 301 300 297 295 292 290 287 285 282 280 278 276 275 273 272 272 272 273 273 273 273 270 267 263 260 258 258 257 257 256 256 254 253 253 252 250 248 246 245 244 243 242 242 244 244 245 244 241 240 240 241 242 244 245 244 243 243 245 247 248 245 241 241 245 250 252 254 255 255
298 299 300 302 303 305 306 308 310 312 313 314 315 315 315 314 313 311 308 304 300 296 293 290 287 284 281 278 276 273 272 270 270 270 271 271 271 270 266 262 259 257 256 256 255 253 253 253 251 249 249 249 248 246 244 242 241 241 243 245 245 246 245 244 241 241 242 243 244 245 245 244 244 247 249 249 247 245 246 248 247 246 248 251 253
299 301 303 306 308 311 314 317 319 321 322 324 324 326 326 326 326 324 321 317 311 305 300 296 292 289 285 282 279 276 273 271 269 268 269 269 269 268 265 261 258 255 254 254 254 253 250 250 250 248 246 246 247 246 245 243 240 238 239 242 245 247 248 247 244 243 244 244 244 244 244 244 245 247 250 251 250 249 249 250 247 243 243 245 247
301 303 306 309 312 315 319 322 325 328 330 332 333 335 336 336 336 336 335 331 325 318 311 306 301 297 292 288 284 280 276 273 271 268 267 267 267 265 264 261 257 255 253 252 253 252 250 248 247 247 246 245 244 245 245 244 244 241 238 238 241 244 246 247 248 247 246 245 244 244 243 244 246 248 249 252 254 253 254 255 251 244 242 243 245
302 304 307 310 313 317 321 326 330 334 336 338 339 340 340 340 341 341 342 340 334 327 321 315 311 307 302 297 291 286 281 277 274 271 268 267 266 264 261 259 256 254 252 251 251 251 249 247 246 245 245 244 243 244 244 243 244 246 244 243 243 243 243 245 248 249 245 241 240 241 243 245 248 250 250 252 255 257 258 258 253 245 241 240 241
303 305 308 311 315 320 326 331 335 338 340 342 342 342 342 342 342 342 344 344 340 333 326 320 316 312 307 303 298 292 287 282 278 274 271 268 266 263 259 256 253 252 251 250 249 249 249 248 246 244 244 243 243 243 243 242 242 244 245 246 246 245 245 247 249 248 244 240 239 242 247 252 253 253 251 251 253 255 257 257 254 249 245 243 242
305 307 310 315 319 325 331 335 337 339 342 343 344 343 343 342 342 343 345 346 345 339 332 326 322 317 311 305 299 294 290 286 281 277 273 270 267 263 258 253 249 248 248 248 248 248 248 247 246 244 243 243 242 242 242 241 241 241 243 244 245 244 245 247 248 248 248 249 247 246 249 255 257 254 252 251 251 252 252 253 254 252 251 251 250
310 313 316 320 324 329 333 337 338 340 341 343 343 344 344 344 343 344 347 348 348 344 339 335 331 327 320 312 304 297 291 286 282 278 274 271 267 263 257 252 247 244 244 244 245 245 246 247 246 245 244 243 243 242 242 242 242 241 242 243 244 244 244 245 247 249 250 252 252 249 247 250 254 255 253 252 251 250 248 248 251 252 254 256 257
315 319 322 324 327 331 334 336 339 341 342 343 344 344 345 345 345 346 348 350 350 349 345 342 339 336 330 324 317 309 301 293 286 280 275 271 267 262 256 250 245 242 240 240 241 242 244 245 245 245 244 243 243 243 242 243 243 243 243 244 244 244 244 245 248 250 251 251 251 250 249 249 251 255 258 258 257 255 251 249 249 252 256 259 260
319 323 326 327 330 332 334 336 339 341 342 344 345 345 346 346 346 347 349 350 352 352 350 347 345 342 337 333 328 322 316 309 300 291 283 275 269 263 257 250 245 241 238 238 239 239 241 242 244 244 243 243 243 243 242 242 243 244 244 245 245 244 244 244 246 248 250 251 250 250 251 250 249 253 258 261 260 258 255 252 250 251 255 256 256
323 325 327 330 331 333 335 337 340 342 343 345 346 346 346 347 347 348 349 351 353 355 354 352 350 347 342 339 336 331 325 319 312 304 296 286 277 269 260 252 247 243 239 237 238 239 239 240 241 242 243 242 242 242 242 241 242 243 244 245 245 244 244 244 245 246 249 250 250 251 253 253 250 249 254 256 254 253 252 252 250 251 253 254 253
327 328 330 331 332 334 336 339 342 343 343 344 345 346 348 348 348 348 349 351 353 356 357 355 353 351 347 344 343 340 335 328 321 314 307 299 289 278 268 257 250 246 241 239 239 239 239 239 240 240 241 242 242 242 242 241 240 240 242 243 244 244 243 243 244 245 246 248 249 250 252 253 251 248 250 254 254 253 252 253 253 253 253 254 253
331 331 332 333 334 337 339 341 342 342 342 344 346 347 348 349 349 349 350 351 353 356 358 357 356 355 352 349 348 347 344 339 332 324 318 312 303 291 278 264 255 250 246 243 242 241 241 240 240 239 239 240 240 241 241 242 241 240 239 240 240 241 243 243 244 244 245 247 249 249 250 252 252 248 248 252 255 256 256 257 257 257 256 257 257
336 335 335 337 339 341 342 342 342 342 344 345 347 348 348 349 349 350 350 352 353 355 358 359 358 357 356 354 352 352 351 347 341 334 327 322 317 308 295 278 264 256 251 248 246 245 244 242 241 240 239 238 238 239 240 241 242 242 242 240 238 237 237 239 241 244 245 246 247 247 247 249 251 251 249 250 253 256 258 258 258 257 258 258 258
341 341 341 342 343 343 343 343 344 345 346 346 347 348 349 349 349 350 351 352 354 355 358 359 359 359 359 357 355 355 354 352 348 343 337 331 327 321 312 298 280 266 257 254 251 249 247 246 244 241 239 237 237 238 239 239 239 241 243 244 242 239 236 235 235 237 239 241 242 244 245 247 250 251 251 250 252 255 256 256 256 256 257 258 258
346 346 345 345 346 345 345 346 346 345 345 346 347 348 348 349 350 351 351 353 354 355 358 360 1 1 1 360 358 357 357 356 353 350 346 342 337 332 326 318 303 285 270 262 257 253 251 249 247 245 242 238 235 236 238 238 237 236 238 241 243 242 240 239 238 238 239 240 242 244 246 248 250 250 249 250 252 255 256 255 255 256 257 258 259
348 349 348 347 347 348 347 347 346 345 345 346 347 347 348 350 351 351 352 353 354 355 357 360 2 2 2 2 1 359 359 359 357 353 349 347 343 338 334 330 322 309 292 278 268 260 256 253 251 249 246 242 237 236 237 239 238 237 238 240 241 241 240 240 240 241 241 243 245 246 248 248 250 251 250 249 250 253 255 255 255 257 258 259 260
349 349 349 348 348 348 348 348 348 348 347 347 347 348 348 350 351 352 352 353 354 354 356 359 2 3 3 3 3 1 0 0 360 357 351 349 348 344 340 337 333 325 313 301 287 274 263 258 255 253 251 247 242 239 238 240 241 240 240 241 243 244 244 243 242 241 241 241 242 243 244 244 245 246 247 248 248 249 251 252 254 256 258 259 260
349 349 348 348 349 349 350 350 350 350 349 348 348 348 349 351 352 352 352 353 353 354 356 359 2 4 4 4 4 4 2 0 0 360 356 352 351 350 346 342 338 334 328 318 307 293 278 267 260 256 254 252 248 244 241 243 245 245 244 243 244 246 247 248 248 246 244 243 242 242 242 242 242 243 244 245 247 248 249 251 253 255 256 258 258
348 348 349 349 350 350 350 350 351 350 349 348 348 348 349 350 351 351 351 352 354 355 356 358 1 4 5 5 4 4 4 2 1 1 360 356 353 352 351 348 343 339 336 330 321 310 296 281 269 262 258 256 254 250 247 246 248 249 249 247 246 245 246 247 247 246 245 244 244 244 245 245 245 246 246 247 248 249 250 251 252 253 254 255 256
347 348 348 349 350 350 349 349 349 349 349 349 348 348 348 348 349 349 350 352 354 355 356 357 359 2 5 6 5 5 5 4 2 1 0 358 354 352 352 351 348 343 340 336 331 323 311 297 283 273 265 260 258 255 252 250 251 252 252 250 248 247 246 245 245 245 245 244 243 243 244 245 246 247 247 248 248 249 249 250 251 252 253 254 255
346 346 347 348 348 348 348 348 348 348 348 348 348 348 347 347 347 349 350 352 354 355 356 357 358 0 3 6 7 6 5 5 4 2 1 359 356 354 352 351 350 347 343 339 336 331 322 311 298 286 277 269 263 259 256 253 252 252 252 251 250 249 248 247 246 246 245 245 245 244 244 244 245 245 245 246 246 247 248 249 249 251 252 253 253
343 343 345 346 346 346 347 348 347 347 348 348 348 348 348 347 347 349 350 351 353 355 356 357 358 358 1 4 7 8 7 5 4 3 2 0 358 356 353 350 350 350 347 342 339 335 329 322 312 300 289 280 272 265 260 256 253 250 249 249 248 248 247 246 245 244 244 244 244 244 244 244 244 244 244 244 244 245 246 247 247 248 249 249 249
340 341 342 344 345 345 346 347 347 347 347 348 348 348 348 348 348 348 349 350 352 354 355 356 357 358 359 1 5 7 8 7 5 4 3 2 360 357 353 349 347 349 349 347 342 337 332 327 321 312 303 292 283 275 269 263 258 253 249 246 245 245 245 244 242 242 243 242 242 241 241 240 241 242 243 244 244 243 243 243 244 244 245 245 245
338 339 341 342 343 343 344 345 345 346 347 348 348 347 348 348 348 348 348 349 350 352 354 356 357 358 359 360 2 5 8 8 7 5 4 3 2 359 355 350 346 344 346 348 346 340 334 329 324 319 313 304 294 285 279 274 269 264 258 252 247 244 243 242 240 239 240 240 240 240 238 238 239 240 241 241 242 241 241 242 242 243 244 245 246
337 337 339 341 341 341 342 343 344 345 346 347 348 348 347 348 347 347 347 348 349 350 353 354 356 357 358 359 359 2 5 7 8 8 6 4 3 1 359 355 350 344 342 344 345 343 338 332 326 320 315 310 304 296 289 282 277 273 268 264 258 252 248 244 240 238 238 239 241 240 239 239 241 241 240 240 241 242 243 243 244 244 245 247 249
335 335 337 340 340 340 340 341 342 343 344 346 347 347 347 347 347 346 346 347 348 349 351 353 354 356 357 358 358 359 1 4 7 8 8 6 4 3 1 358 355 350 345 340 339 340 339 335 328 321 315 311 308 304 297 290 283 277 273 270 267 264 260 254 249 244 242 242 243 243 241 240 242 243 243 243 244 245 246 247 247 247 247 248 249
335 334 336 338 339 339 339 340 341 342 343 344 346 346 345 345 346 345 345 346 347 348 349 351 353 355 356 357 357 358 358 0 3 6 7 7 6 4 2 360 357 355 351 344 337 335 334 333 330 324 317 311 308 304 299 295 289 284 279 274 271 268 266 263 259 255 251 251 251 250 247 244 245 246 247 246 247 248 249 250 250 250 249 250 251
335 336 336 337 337 338 338 339 341 342 343 343 344 345 345 344 344 345 345 345 346 346 347 349 351 353 355 356 356 356 356 357 359 2 5 7 6 5 4 1 358 356 353 350 343 335 328 326 327 325 320 315 309 303 299 295 292 287 283 278 274 270 268 265 263 261 258 256 256 256 255 252 251 251 251 250 249 250 250 251 252 252 252 252 252
335 336 336 336 336 337 339 339 340 341 342 342 343 344 344 344 343 344 343 344 345 345 346 348 350 351 352 354 355 355 355 355 356 358 1 4 5 5 5 3 0 356 353 351 348 343 333 323 319 319 320 318 312 305 300 296 292 288 284 280 276 272 269 266 264 262 260 258 257 257 257 256 256 255 254 253 251 251 251 251 252 252 252 252 252
Height
5782 5781 5781 5780 5779 5779 5778 5777 5776 5775 5774 5772 5771 5770 5769 5767 5766 5764 5763 5762 5761 5759 5758 5757 5756 5755 5754 5753 5753 5752 5751 5749 5747 5745 5744 5741 5739 5736 5732 5730 5728 5727 5726 5726 5726 5727 5728 5730 5731 5733 5733 5735 5736 5737 5738 5739 5739 5740 5741 5743 5745 5746 5747 5748 5749 5750 5752 5753 5754 5755 5756 5759 5761 5761 5761 5763 5765 5766 5766 5767 5767 5768 5768 5769 5769
5778 5777 5777 5776 5775 5774 5774 5773 5772 5771 5769 5768 5767 5765 5765 5763 5762 5760 5759 5758 5756 5755 5754 5753 5752 5751 5750 5749 5749 5748 5746 5745 5743 5741 5740 5738 5735 5732 5729 5727 5725 5723 5722 5722 5723 5724 5725 5725 5727 5728 5730 5731 5732 5733 5734 5736 5737 5737 5738 5740 5741 5743 5744 5745 5746 5747 5749 5749 5750 5751 5753 5756 5758 5758 5758 5759 5761 5763 5763 5764 5764 5765 5765 5766 5766
5774 5773 5772 5771 5771 5770 5769 5768 5767 5766 5765 5764 5762 5761 5760 5759 5758 5756 5755 5754 5752 5751 5750 5749 5747 5746 5745 5745 5745 5744 5742 5741 5739 5737 5736 5734 5732 5729 5726 5723 5721 5720 5719 5719 5720 5720 5721 5722 5723 5724 5726 5727 5728 5729 5731 5732 5733 5733 5734 5736 5738 5739 5741 5742 5744 5745 5745 5746 5747 5749 5750 5752 5754 5755 5754 5755 5758 5760 5760 5760 5761 5762 5762 5763 5763
5770 5769 5768 5767 5766 5765 5765 5764 5763 5762 5761 5759 5758 5757 5756 5755 5753 5752 5751 5749 5748 5747 5745 5744 5743 5742 5741 5740 5740 5739 5738 5737 5735 5733 5732 5730 5727 5725 5723 5720 5718 5717 5716 5716 5716 5716 5717 5718 5719 5721 5722 5722 5723 5725 5727 5728 5728 5728 5729 5732 5734 5735 5737 5739 5740 5741 5742 5743 5745 5746 5747 5748 5750 5751 5751 5751 5754 5757 5757 5757 5758 5759 5759 5759 5760
5765 5765 5764 5763 5762 5761 5760 5759 5759 5758 5756 5755 5754 5753 5751 5750 5749 5748 5746 5745 5744 5742 5741 5739 5738 5737 5736 5735 5734 5734 5733 5733 5731 5729 5727 5726 5723 5721 5719 5716 5714 5713 5713 5713 5713 5712 5712 5714 5716 5717 5718 5719 5720 5721 5721 5722 5722 5723 5725 5728 5730 5731 5733 5734 5736 5737 5738 5739 5741 5742 5743 5744 5746 5747 5747 5748 5751 5753 5754 5754 5755 5756 5756 5757 5757
5761 5760 5759 5758 5757 5757 5756 5755 5754 5753 5752 5750 5749 5748 5746 5745 5744 5743 5742 5740 5739 5738 5736 5735 5733 5732 5731 5730 5729 5729 5728 5727 5726 5725 5723 5721 5719 5717 5715 5712 5710 5709 5709 5709 5709 5709 5708 5709 5712 5714 5715 5715 5716 5717 5717 5716 5717 5719 5722 5724 5725 5727 5729 5730 5731 5733 5734 5736 5737 5739 5740 5740 5742 5744 5744 5744 5747 5750 5751 5751 5752 5753 5753 5754 5754
5757 5756 5755 5754 5753 5752 5751 5750 5749 5748 5747 5746 5744 5743 5742 5740 5739 5738 5737 5735 5734 5733 5732 5730 5728 5727 5726 5725 5724 5724 5723 5723 5722 5720 5719 5717 5715 5713 5711 5709 5706 5705 5705 5705 5705 5705 5705 5706 5708 5710 5711 5711 5711 5712 5712 5712 5714 5716 5719 5720 5721 5722 5724 5726 5727 5728 5730 5732 5734 5735 5736 5737 5738 5740 5740 5740 5742 5745 5747 5748 5749 5750 5750 5750 5751
5752 5752 5750 5750 5749 5747 5746 5745 5744 5743 5742 5741 5740 5738 5737 5736 5734 5733 5732 5730 5729 5728 5727 5726 5724 5722 5721 5720 5720 5719 5718 5718 5717 5716 5714 5713 5711 5709 5707 5705 5703 5701 5701 5702 5701 5701 5701 5703 5704 5705 5707 5707 5707 5707 5707 5708 5711 5713 5714 5716 5717 5718 5720 5721 5723 5725 5726 5728 5730 5731 5732 5733 5734 5735 5736 5736 5738 5741 5743 5744 5745 5746 5747 5747 5747
5748 5747 5746 5745 5744 5743 5742 5741 5740 5738 5737 5736 5735 5734 5732 5731 5729 5728 5727 5725 5724 5723 5722 5721 5719 5718 5716 5715 5714 5714 5713 5713 5713 5712 5711 5708 5707 5705 5703 5702 5700 5698 5697 5698 5698 5697 5698 5699 5700 5702 5703 5703 5703 5703 5703 5705 5707 5708 5709 5711 5712 5714 5715 5717 5719 5720 5722 5724 5725 5727 5728 5729 5730 5731 5733 5734 5735 5736 5738 5739 5740 5742 5743 5744 5744
5744 5743 5742 5741 5740 5739 5738 5737 5735 5734 5733 5731 5730 5729 5727 5726 5724 5723 5721 5720 5719 5718 5716 5715 5714 5713 5711 5710 5709 5708 5708 5708 5707 5707 5707 5705 5703 5701 5700 5698 5696 5695 5694 5693 5693 5694 5694 5695 5696 5698 5699 5700 5700 5700 5700 5701 5703 5703 5704 5706 5707 5709 5711 5713 5714 5716 5717 5719 5720 5722 5724 5725 5726 5727 5729 5730 5730 5731 5733 5735 5736 5737 5739 5740 5740
5740 5739 5738 5737 5736 5735 5734 5732 5731 5729 5728 5727 5725 5724 5722 5721 5719 5718 5716 5715 5714 5712 5711 5710 5709 5707 5706 5705 5704 5703 5703 5703 5702 5702 5702 5701 5699 5697 5696 5695 5693 5691 5690 5690 5690 5690 5689 5690 5692 5693 5695 5696 5696 5696 5696 5697 5699 5699 5700 5702 5703 5705 5707 5709 5710 5712 5713 5714 5716 5717 5719 5721 5722 5723 5724 5726 5726 5727 5729 5730 5731 5733 5735 5736 5736
5736 5735 5733 5732 5731 5730 5729 5728 5726 5724 5723 5722 5720 5719 5717 5716 5715 5713 5712 5710 5709 5707 5706 5705 5703 5702 5700 5699 5699 5698 5697 5697 5697 5697 5697 5696 5695 5693 5692 5690 5689 5688 5686 5685 5685 5685 5685 5686 5687 5689 5690 5691 5692 5692 5692 5693 5695 5696 5697 5698 5699 5701 5703 5705 5706 5707 5708 5709 5711 5713 5714 5716 5717 5718 5720 5722 5723 5723 5724 5725 5726 5728 5730 5732 5732
5732 5730 5729 5728 5727 5725 5725 5723 5721 5720 5718 5717 5715 5714 5713 5711 5710 5708 5706 5705 5704 5702 5700 5699 5698 5696 5695 5693 5693 5692 5691 5691 5691 5691 5691 5691 5690 5688 5687 5686 5685 5683 5682 5681 5681 5681 5681 5682 5683 5684 5686 5687 5688 5689 5689 5689 5690 5692 5693 5694 5695 5697 5699 5700 5701 5703 5704 5705 5706 5708 5709 5710 5712 5714 5716 5717 5718 5719 5720 5721 5722 5723 5726 5727 5728
5727 5725 5724 5723 5722 5721 5720 5718 5716 5714 5713 5712 5710 5708 5707 5706 5705 5703 5701 5699 5698 5697 5695 5693 5692 5691 5689 5688 5687 5686 5685 5684 5685 5685 5685 5685 5685 5683 5682 5681 5680 5679 5678 5677 5677 5677 5677 5678 5679 5679 5681 5682 5684 5685 5686 5686 5686 5687 5689 5690 5691 5691 5692 5694 5696 5698 5699 5700 5701 5703 5705 5706 5708 5710 5711 5712 5713 5715 5717 5718 5719 5720 5721 5722 5723
5722 5720 5719 5718 5717 5715 5714 5712 5711 5709 5707 5706 5704 5703 5701 5700 5699 5697 5695 5693 5692 5691 5689 5687 5686 5685 5683 5682 5680 5679 5679 5678 5678 5679 5679 5679 5679 5678 5677 5676 5675 5675 5674 5673 5673 5673 5673 5674 5674 5675 5677 5678 5679 5680 5681 5682 5682 5683 5684 5686 5687 5686 5687 5689 5691 5692 5694 5695 5697 5699 5700 5702 5704 5705 5706 5707 5708 5711 5713 5714 5715 5716 5716 5716 5718
5718 5716 5714 5713 5711 5710 5708 5706 5705 5703 5701 5700 5698 5697 5695 5693 5692 5690 5689 5687 5685 5684 5682 5681 5680 5679 5677 5676 5674 5673 5672 5671 5671 5672 5672 5673 5673 5673 5672 5671 5670 5670 5670 5669 5669 5668 5669 5670 5670 5671 5673 5674 5674 5675 5676 5677 5678 5678 5679 5681 5682 5682 5683 5685 5687 5688 5689 5691 5693 5695 5696 5697 5699 5701 5702 5703 5703 5704 5706 5708 5709 5711 5711 5712 5714
5713 5711 5710 5708 5706 5705 5703 5701 5699 5697 5695 5694 5692 5690 5688 5687 5685 5683 5682 5680 5678 5677 5675 5673 5672 5671 5670 5669 5668 5666 5665 5664 5664 5664 5665 5666 5666 5666 5666 5665 5665 5665 5665 5664 5664 5664 5664 5664 5665 5667 5668 5669 5670 5670 5671 5672 5673 5674 5675 5676 5677 5678 5679 5681 5682 5683 5685 5687 5689 5690 5691 5693 5695 5696 5698 5698 5699 5699 5700 5702 5704 5706 5707 5708 5709
5708 5707 5705 5703 5701 5700 5698 5696 5694 5691 5689 5688 5686 5684 5682 5680 5678 5676 5674 5672 5670 5669 5667 5665 5664 5663 5662 5661 5660 5659 5658 5657 5657 5656 5657 5658 5659 5660 5660 5659 5659 5659 5659 5659 5659 5659 5659 5659 5660 5661 5662 5663 5664 5665 5666 5667 5668 5669 5670 5671 5672 5673 5674 5676 5678 5679 5680 5683 5685 5686 5687 5689 5690 5691 5692 5693 5694 5695 5696 5698 5699 5700 5701 5702 5704
5704 5702 5700 5698 5696 5695 5693 5691 5688 5686 5684 5682 5680 5677 5675 5673 5670 5668 5666 5664 5662 5660 5658 5657 5655 5654 5653 5652 5652 5651 5650 5649 5649 5648 5648 5649 5651 5652 5653 5653 5652 5652 5652 5653 5653 5653 5654 5654 5654 5655 5656 5657 5658 5659 5660 5662 5663 5664 5665 5667 5668 5669 5671 5673 5675 5675 5676 5679 5680 5682 5684 5684 5685 5686 5687 5688 5689 5691 5692 5694 5695 5695 5695 5696 5698
5699 5698 5696 5694 5692 5690 5688 5686 5684 5681 5679 5676 5674 5671 5668 5666 5663 5660 5658 5656 5654 5651 5649 5647 5646 5645 5643 5642 5643 5642 5641 5640 5640 5640 5640 5641 5642 5643 5645 5645 5645 5646 5646 5646 5647 5647 5648 5648 5649 5649 5650 5651 5652 5653 5654 5656 5657 5659 5661 5662 5663 5665 5667 5669 5671 5672 5673 5673 5674 5677 5679 5678 5679 5681 5683 5684 5685 5687 5688 5689 5690 5691 5690 5690 5692
5695 5693 5692 5689 5687 5685 5683 5681 5678 5676 5673 5671 5668 5665 5662 5659 5656 5653 5650 5647 5645 5642 5640 5637 5636 5635 5633 5632 5632 5632 5632 5631 5630 5630 5631 5632 5633 5634 5636 5637 5638 5638 5639 5639 5640 5640 5641 5642 5643 5644 5644 5645 5646 5647 5648 5650 5652 5654 5656 5656 5657 5660 5662 5664 5664 5666 5668 5668 5669 5671 5673 5673 5675 5677 5678 5680 5681 5683 5683 5683 5684 5686 5687 5686 5686
5691 5690 5688 5685 5683 5681 5679 5676 5674 5671 5668 5665 5662 5659 5656 5653 5649 5646 5642 5639 5636 5633 5630 5628 5626 5624 5623 5622 5621 5621 5621 5621 5621 5621 5621 5622 5623 5625 5627 5628 5629 5630 5631 5632 5632 5633 5634 5636 5637 5638 5638 5639 5640 5641 5642 5644 5646 5648 5649 5650 5652 5655 5657 5658 5659 5661 5663 5664 5665 5666 5668 5669 5671 5672 5673 5675 5676 5677 5678 5679 5681 5681 5681 5681 5682
5688 5686 5684 5682 5679 5677 5675 5672 5669 5667 5664 5661 5658 5654 5651 5648 5644 5640 5636 5632 5629 5626 5623 5619 5616 5614 5612 5611 5610 5610 5610 5611 5611 5611 5611 5612 5613 5615 5617 5619 5620 5621 5622 5623 5624 5626 5627 5629 5630 5632 5633 5633 5634 5635 5636 5638 5640 5642 5643 5645 5647 5648 5650 5652 5654 5656 5657 5658 5660 5661 5662 5663 5665 5666 5667 5668 5669 5671 5673 5675 5677 5677 5676 5677 5677
5685 5683 5681 5679 5676 5674 5671 5668 5666 5663 5660 5657 5654 5651 5647 5643 5640 5636 5632 5627 5623 5619 5616 5612 5609 5606 5603 5602 5600 5600 5599 5599 5600 5600 5601 5602 5603 5605 5607 5609 5611 5612 5613 5614 5616 5617 5619 5621 5623 5625 5626 5627 5628 5629 5630 5632 5634 5636 5637 5639 5641 5642 5643 5645 5647 5649 5650 5652 5654 5655 5656 5657 5659 5660 5661 5662 5663 5664 5666 5667 5669 5671 5671 5671 5672
5682 5680 5678 5676 5673 5671 5668 5665 5663 5660 5657 5653 5650 5647 5643 5639 5635 5631 5627 5622 5617 5613 5609 5606 5603 5599 5596 5593 5591 5590 5590 5589 5589 5589 5590 5592 5593 5595 5597 5600 5602 5604 5605 5606 5607 5609 5611 5613 5615 5617 5619 5620 5622 5623 5624 5626 5628 5629 5631 5632 5634 5635 5637 5638 5640 5642 5643 5645 5647 5648 5649 5651 5652 5653 5654 5655 5656 5658 5659 5660 5661 5663 5664 5665 5666
5679 5677 5675 5673 5671 5668 5666 5663 5660 5657 5654 5650 5647 5643 5640 5636 5632 5628 5623 5618 5613 5608 5604 5600 5597 5593 5590 5587 5584 5582 5581 5581 5580 5580 5580 5581 5583 5585 5588 5590 5592 5594 5596 5598 5599 5600 5602 5604 5606 5609 5611 5613 5615 5616 5618 5620 5622 5623 5624 5625 5627 5628 5630 5632 5634 5635 5637 5639 5640 5642 5643 5644 5645 5646 5648 5649 5650 5651 5652 5653 5654 5655 5657 5659 5660
5677 5675 5673 5670 5668 5665 5663 5660 5657 5654 5651 5648 5644 5641 5637 5633 5629 5625 5621 5615 5610 5604 5599 5595 5591 5588 5584 5581 5578 5575 5573 5573 5572 5572 5572 5572 5574 5576 5578 5580 5582 5585 5587 5589 5591 5592 5594 5596 5598 5600 5603 5605 5607 5609 5611 5613 5615 5617 5618 5619 5621 5622 5624 5626 5628 5629 5630 5632 5634 5635 5637 5638 5638 5639 5641 5642 5643 5644 5645 5646 5647 5649 5650 5652 5653
5674 5672 5670 5667 5665 5663 5660 5657 5655 5652 5648 5645 5642 5639 5635 5631 5627 5623 5618 5613 5607 5601 5596 5591 5586 5582 5579 5575 5572 5569 5566 5565 5565 5565 5565 5565 5565 5566 5568 5571 5573 5575 5578 5580 5582 5584 5586 5588 5590 5592 5595 5597 5599 5601 5604 5606 5608 5610 5612 5613 5615 5616 5618 5619 5621 5622 5624 5625 5627 5628 5630 5631 5632 5633 5634 5635 5636 5637 5638 5639 5640 5642 5643 5645 5646
5671 5669 5667 5665 5662 5660 5657 5655 5652 5649 5646 5643 5640 5636 5632 5628 5624 5620 5615 5609 5603 5597 5592 5586 5581 5577 5572 5569 5566 5563 5560 5559 5558 5558 5558 5558 5558 5558 5560 5562 5564 5566 5569 5571 5573 5576 5578 5580 5582 5584 5586 5589 5591 5593 5596 5598 5601 5603 5604 5606 5608 5610 5612 5613 5614 5616 5617 5619 5621 5622 5623 5624 5625 5626 5627 5628 5630 5631 5632 5633 5634 5636 5637 5639 5639
5669 5667 5664 5662 5660 5658 5655 5653 5650 5647 5644 5641 5637 5633 5630 5625 5621 5617 5612 5607 5601 5595 5589 5583 5577 5572 5567 5563 5560 5557 5554 5553 5552 5551 5551 5551 5551 5552 5552 5553 5555 5558 5560 5562 5565 5567 5570 5572 5574 5576 5579 5581 5583 5586 5588 5590 5593 5595 5597 5598 5601 5603 5605 5606 5608 5609 5611 5613 5615 5615 5616 5617 5619 5620 5620 5622 5624 5625 5627 5628 5629 5630 5631 5632 5633
5666 5664 5662 5660 5658 5655 5653 5650 5647 5644 5641 5638 5635 5631 5627 5623 5618 5614 5610 5605 5599 5593 5587 5580 5574 5569 5564 5560 5556 5552 5549 5547 5546 5545 5544 5544 5545 5545 5546 5546 5547 5550 5552 5554 5556 5559 5561 5564 5566 5568 5571 5573 5576 5578 5580 5582 5585 5587 5589 5591 5593 5596 5598 5600 5601 5602 5604 5606 5608 5609 5610 5611 5613 5614 5615 5616 5617 5619 5621 5622 5623 5624 5625 5626 5627
5664 5662 5660 5658 5655 5653 5650 5648 5645 5642 5639 5636 5633 5629 5625 5621 5616 5612 5608 5603 5597 5591 5585 5579 5572 5567 5562 5558 5555 5551 5547 5544 5542 5540 5539 5539 5539 5539 5540 5541 5541 5543 5545 5547 5549 5551 5553 5556 5558 5561 5563 5565 5568 5570 5573 5575 5577 5579 5581 5583 5586 5588 5590 5592 5594 5596 5598 5599 5601 5602 5604 5605 5607 5608 5609 5610 5611 5612 5614 5615 5616 5617 5619 5620 5620
5661 5659 5657 5655 5653 5651 5648 5645 5642 5640 5637 5634 5631 5627 5623 5619 5614 5610 5605 5600 5595 5589 5584 5577 5571 5565 5560 5556 5552 5549 5545 5542 5539 5537 5535 5534 5534 5534 5535 5536 5536 5537 5538 5540 5542 5543 5546 5548 5550 5553 5555 5558 5560 5563 5565 5568 5570 5572 5574 5576 5578 5581 5583 5585 5587 5589 5591 5592 5594 5596 5597 5599 5600 5602 5603 5604 5605 5606 5607 5608 5609 5610 5612 5613 5614
5659 5657 5655 5653 5650 5648 5645 5643 5640 5638 5635 5632 5629 5625 5621 5617 5613 5608 5603 5598 5593 5588 5582 5577 5570 5564 5559 5554 5550 5547 5543 5540 5537 5534 5532 5531 5530 5529 5530 5531 5531 5532 5533 5534 5535 5537 5539 5541 5543 5545 5548 5551 5553 5556 5558 5560 5563 5565 5567 5569 5571 5574 5576 5578 5580 5582 5584 5586 5587 5589 5590 5592 5593 5595 5596 5597 5598 5599 5600 5601 5602 5603 5605 5606 5607
5657 5655 5653 5650 5648 5646 5643 5641 5639 5636 5633 5630 5627 5623 5619 5616 5612 5607 5602 5598 5592 5586 5581 5575 5570 5564 5558 5553 5549 5545 5542 5538 5535 5533 5530 5528 5527 5526 5526 5526 5527 5527 5528 5529 5530 5531 5532 5534 5536 5538 5541 5544 5546 5549 5551 5553 5556 5558 5560 5562 5564 5567 5569 5572 5574 5575 5577 5579 5580 5582 5583 5585 5586 5588 5590 5591 5592 5593 5593 5594 5595 5596 5598 5599 5600
5655 5653 5651 5648 5646 5643 5641 5639 5636 5633 5631 5628 5625 5621 5618 5614 5610 5606 5601 5597 5592 5586 5580 5574 5568 5563 5557 5552 5548 5544 5540 5537 5534 5531 5529 5527 5525 5524 5523 5523 5523 5523 5524 5524 5525 5526 5527 5528 5530 5532 5535 5537 5540 5542 5544 5547 5549 5551 5553 5555 5557 5560 5562 5564 5566 5568 5570 5571 5573 5574 5576 5577 5579 5581 5582 5584 5585 5586 5586 5587 5588 5589 5591 5592 5592
5653 5651 5648 5646 5644 5641 5639 5636 5634 5631 5629 5626 5623 5620 5617 5613 5609 5605 5600 5596 5591 5586 5581 5575 5569 5563 5558 5553 5548 5543 5539 5536 5532 5530 5527 5525 5524 5522 5521 5521 5520 5520 5520 5520 5521 5521 5522 5523 5525 5527 5529 5532 5534 5537 5539 5540 5543 5545 5547 5549 5550 5553 5555 5557 5559 5560 5562 5563 5565 5566 5568 5569 5571 5573 5575 5576 5578 5578 5579 5580 5581 5582 5584 5584 5584
5651 5649 5647 5644 5642 5640 5638 5635 5633 5630 5627 5625 5622 5619 5615 5612 5608 5603 5599 5595 5590 5586 5581 5576 5570 5564 5559 5553 5548 5544 5539 5536 5532 5530 5527 5525 5524 5522 5520 5519 5519 5518 5518 5517 5517 5518 5519 5520 5521 5523 5525 5526 5528 5530 5532 5534 5536 5538 5540 5542 5544 5546 5548 5550 5551 5553 5555 5556 5558 5559 5561 5563 5564 5566 5568 5569 5570 5571 5572 5573 5574 5575 5576 5577 5576
5649 5647 5645 5643 5641 5639 5637 5634 5632 5629 5626 5623 5620 5617 5614 5610 5606 5602 5598 5594 5590 5586 5581 5576 5570 5565 5559 5554 5549 5545 5540 5536 5533 5530 5528 5526 5524 5522 5520 5519 5518 5517 5516 5516 5515 5515 5516 5517 5518 5519 5520 5521 5523 5524 5526 5528 5530 5532 5534 5535 5537 5539 5541 5543 5545 5546 5548 5550 5551 5553 5554 5556 5557 5559 5560 5561 5562 5563 5564 5566 5567 5568 5569 5569 5569
5648 5646 5644 5642 5640 5637 5635 5632 5629 5627 5624 5621 5618 5615 5612 5608 5605 5601 5597 5593 5589 5585 5581 5576 5571 5566 5561 5555 5550 5546 5541 5537 5533 5531 5528 5526 5524 5522 5520 5518 5517 5516 5515 5514 5514 5514 5514 5514 5515 5516 5516 5517 5518 5520 5523 5524 5526 5527 5529 5530 5532 5533 5534 5536 5538 5540 5542 5543 5545 5546 5547 5549 5550 5551 5552 5554 5555 5556 5557 5558 5560 5561 5561 5561 5562
5646 5644 5642 5640 5637 5635 5633 5630 5628 5625 5622 5619 5616 5613 5610 5607 5604 5600 5597 5593 5589 5584 5580 5576 5571 5567 5562 5556 5551 5546 5542 5538 5534 5530 5528 5526 5524 5522 5520 5519 5517 5516 5515 5514 5513 5513 5512 5512 5513 5513 5513 5514 5516 5517 5519 5520 5521 5523 5524 5525 5526 5527 5528 5530 5531 5533 5535 5537 5538 5540 5541 5542 5543 5544 5546 5547 5548 5549 5550 5552 5553 5553 5553 5554 5554
5645 5642 5640 5638 5636 5633 5631 5629 5626 5623 5621 5618 5615 5611 5608 5606 5603 5599 5596 5592 5588 5584 5579 5575 5571 5567 5562 5557 5552 5547 5543 5539 5535 5531 5528 5526 5524 5522 5520 5519 5517 5516 5515 5514 5513 5512 5511 5511 5511 5511 5512 5512 5513 5514 5515 5516 5517 5519 5520 5521 5522 5523 5524 5525 5526 5528 5529 5531 5532 5533 5534 5536 5537 5538 5539 5540 5541 5542 5544 5545 5545 5546 5547 5548 5548
5643 5641 5639 5637 5635 5632 5630 5627 5624 5622 5619 5617 5614 5611 5607 5604 5601 5598 5594 5591 5587 5583 5579 5575 5571 5567 5563 5559 5554 5549 5544 5540 5536 5532 5529 5526 5524 5522 5521 5519 5517 5516 5515 5513 5512 5511 5511 5510 5510 5510 5510 5510 5511 5511 5512 5513 5514 5515 5517 5518 5518 5519 5520 5522 5523 5524 5525 5526 5527 5528 5529 5530 5531 5532 5533 5533 5535 5536 5537 5538 5538 5540 5541 5542 5543
5641 5639 5637 5635 5633 5630 5628 5625 5623 5620 5617 5615 5612 5609 5606 5603 5599 5596 5593 5589 5586 5583 5579 5575 5571 5567 5563 5559 5555 5550 5545 5541 5536 5533 5530 5527 5524 5522 5521 5519 5517 5516 5514 5513 5512 5511 5510 5509 5509 5508 5508 5508 5509 5509 5510 5510 5510 5512 5513 5514 5515 5516 5517 5518 5519 5520 5521 5521 5522 5523 5524 5525 5526 5526 5527 5528 5530 5531 5532 5532 5533 5534 5536 5537 5537
5639 5637 5635 5633 5631 5628 5626 5624 5621 5618 5616 5613 5610 5607 5604 5601 5598 5594 5591 5588 5585 5582 5578 5575 5571 5567 5563 5559 5555 5551 5547 5542 5538 5534 5530 5528 5525 5522 5520 5518 5517 5516 5514 5513 5512 5511 5510 5509 5508 5508 5507 5507 5507 5507 5507 5508 5508 5509 5510 5511 5512 5513 5514 5515 5516 5517 5517 5518 5519 5519 5520 5521 5521 5522 5523 5525 5526 5527 5527 5527 5528 5530 5531 5532 5533
5638 5635 5633 5631 5629 5626 5624 5622 5619 5617 5614 5611 5608 5605 5602 5599 5596 5593 5590 5587 5583 5580 5577 5574 5570 5567 5563 5559 5555 5551 5548 5544 5540 5535 5532 5528 5526 5523 5520 5518 5517 5515 5514 5513 5512 5510 5509 5508 5508 5507 5506 5506 5506 5506 5506 5506 5506 5507 5508 5509 5509 5510 5510 5512 5513 5514 5514 5515 5515 5516 5517 5518 5518 5519 5520 5521 5522 5522 5523 5524 5524 5526 5526 5527 5528
5635 5633 5631 5629 5627 5625 5622 5620 5617 5615 5612 5609 5607 5604 5600 5597 5594 5591 5588 5585 5582 5579 5576 5573 5569 5566 5563 5559 5555 5552 5548 5545 5541 5537 5533 5529 5526 5524 5521 5518 5516 5515 5513 5513 5511 5510 5509 5508 5507 5506 5505 5505 5505 5505 5504 5504 5505 5505 5505 5506 5506 5507 5508 5509 5510 5511 5511 5511 5512 5512 5514 5515 5515 5515 5516 5517 5517 5518 5519 5520 5520 5522 5523 5523 5524
5633 5631 5629 5627 5625 5623 5620 5618 5615 5613 5610 5607 5605 5602 5599 5596 5593 5590 5587 5584 5581 5578 5575 5572 5568 5565 5562 5559 5555 5552 5548 5545 5541 5538 5534 5530 5527 5524 5522 5519 5517 5514 5513 5511 5511 5510 5509 5508 5507 5506 5505 5504 5504 5504 5503 5503 5503 5503 5503 5504 5504 5505 5505 5506 5507 5508 5508 5508 5509 5509 5511 5511 5512 5512 5513 5514 5514 5515 5515 5516 5517 5518 5519 5519 5520
5631 5629 5627 5625 5623 5621 5619 5616 5614 5611 5608 5605 5603 5600 5597 5594 5592 5589 5586 5583 5580 5577 5574 5571 5568 5564 5561 5558 5554 5551 5548 5545 5541 5538 5535 5532 5528 5525 5522 5519 5517 5515 5513 5511 5510 5509 5508 5507 5506 5505 5504 5503 5503 5502 5502 5502 5502 5502 5502 5502 5502 5502 5503 5503 5504 5505 5506 5506 5506 5507 5507 5508 5509 5509 5510 5511 5511 5512 5512 5513 5513 5514 5515 5516 5517
5629 5627 5625 5623 5621 5619 5617 5614 5612 5609 5606 5604 5601 5599 5595 5592 5589 5587 5584 5581 5578 5575 5572 5569 5566 5563 5560 5557 5554 5551 5548 5545 5542 5539 5536 5533 5529 5526 5523 5520 5517 5515 5513 5511 5509 5508 5506 5505 5505 5504 5503 5502 5502 5501 5501 5501 5500 5500 5500 5500 5500 5500 5500 5501 5501 5502 5503 5503 5504 5504 5505 5506 5506 5507 5507 5508 5509 5509 5509 5510 5511 5512 5513 5513 5514
5627 5625 5623 5621 5618 5616 5614 5612 5609 5607 5605 5602 5600 5598 5595 5591 5588 5585 5582 5579 5577 5574 5571 5568 5565 5562 5559 5556 5554 5551 5547 5545 5542 5539 5536 5533 5530 5526 5523 5520 5517 5515 5513 5511 5509 5507 5506 5504 5503 5503 5502 5501 5500 5500 5499 5499 5499 5499 5498 5498 5498 5498 5498 5498 5499 5499 5500 5501 5501 5502 5502 5503 5504 5504 5505 5505 5506 5506 5507 5507 5508 5509 5510 5510 5511